Regional Weather Roundup
Issued by NWS

Home | Current Version | Previous Version | Graphics & Text | Print | Product List | Glossary On
Versions: 1 2 3 4 5 6 7 8 9 10 11 12 13 14 15 16 17 18 19 20 21 22 23 24 25 26 27 28 29 30 31 32 33 34 35 36 37 38 39 40 41 42 43 44 45 46 47 48 49 50
000
ASUS43 KMKX 290900
RWRWI

WISCONSIN REGIONAL WEATHER ROUNDUP
NATIONAL WEATHER SERVICE MILWAUKEE/SULLIVAN WI
400 AM CDT SAT APR 29 2017

NOTE: "FAIR" INDICATES FEW OR NO CLOUDS BELOW 12,000 FEET WITH NO
SIGNIFICANT WEATHER AND/OR OBSTRUCTIONS TO VISIBILITY.

WIZ001-002-006>008-014>016-023>028-291000-
NORTHWEST WISCONSIN

CITY           SKY/WX    TMP DP  RH WIND       PRES   REMARKS
SUPERIOR ARPT  CLEAR     27  26  96 CALM      30.26R
ASHLAND        CLEAR     27  24  89 W5        30.24R WCI  22
HAYWARD        CLOUDY    26  23  88 CALM      30.21R
SIREN          CLOUDY    28  25  89 N3        30.23R
CUMBERLAND     PTCLDY    32  27  80 N6        30.20R WCI  26
RICE LAKE      PTCLDY    34  28  79 CALM      30.23R
CHETEK         NOT AVBL
LADYSMITH      PTCLDY    31  27  82 N6        30.22R WCI  26
EAU CLAIRE     NOT AVBL
MENOMONIE      CLOUDY    36  28  73 N8        30.17F WCI  30
NEW RICHMOND   PTCLDY    35  28  75 NE7       30.19F WCI  29
OSCEOLA        CLOUDY    37  28  72 NE7       30.23F WCI  31
$$

WIZ003>005-009-010-017-018-291000-
NORTH CENTRAL WISCONSIN

CITY           SKY/WX    TMP DP  RH WIND       PRES   REMARKS
MANITOWISH WTR NOT AVBL
ARBOR VITAE    CLOUDY    29  26  89 N7        30.15R WCI  22
WOODRUFF       CLOUDY    29  26  89 N7        30.15R WCI  22
RHINELANDER    PTCLDY    31  27  85 N6        30.16R WCI  25
EAGLE RIVER    CLEAR     28  24  82 N6        30.14S WCI  22
LAND O LAKES   CLEAR     30  25  81 N6        30.16F WCI  24
PHILLIPS       CLOUDY    28  26  91 N3        30.16S
TOMAHAWK       PTCLDY    29  26  86 NW3       30.16F
MEDFORD        PTCLDY    31  26  81 N9        30.15R WCI  23
MERRILL        CLOUDY    29  27  92 N3        30.15F
$$

WIZ029-030-035-036-043>047-291000-
CENTRAL WISCONSIN

CITY           SKY/WX    TMP DP  RH WIND       PRES   REMARKS
WAUSAU         CLOUDY    32  26  78 N8        30.13S WCI  25
MOSINEE        CLOUDY    32  28  86 N13       30.13F WCI  22
MARSHFIELD     CLOUDY    34  26  72 NE12      30.14R WCI  25
STEVENS POINT  CLOUDY    32  25  76 N9        30.13R WCI  24
WAUPACA        PTCLDY    39  29  67 N12       30.12S WCI  32
WAUTOMA        CLEAR     40  30  67 NE7G16    30.15
WISC RAPIDS    PTCLDY    37  27  67 NE13G21   30.17R WCI  29
CAMP DOUGLAS   NOT AVBL
$$

WIZ011>013-019>022-031-037>040-048>050-291000-
NORTHEAST WISCONSIN

CITY           SKY/WX    TMP DP  RH WIND       PRES   REMARKS
ANTIGO         CLEAR     29  26  88 N9        30.11F WCI  21
SHAWANO        CLEAR     37  29  74 N10       30.12F WCI  29
OCONTO         CLEAR     34  28  78 CALM      30.13R
STURGEON BAY   CLEAR     36  25  64 NE14      30.12S WCI  27
GREEN BAY      PTCLDY    37  28  70 N15       30.13R WCI  28
MANITOWOC      NOT AVBL
APPLETON       PTCLDY    36  27  69 N16       30.09S WCI  26
CLINTONVILLE   PTCLDY    34  27  75 NE12      30.11F WCI  25
OSHKOSH        CLEAR     40  30  67 N10       30.13R WCI  33
$$

WIZ032>034-041-042-053>061-291000-
SOUTHWEST WISCONSIN

CITY           SKY/WX    TMP DP  RH WIND       PRES   REMARKS
LA CROSSE      PTCLDY    38  32  79 N5        30.14R WCI  34
SPARTA         CLOUDY    37  32  82 NE3       30.13R
VIROQUA        PTCLDY    38  32  78 NE8       30.09R WCI  32
BOSCOBEL       CLOUDY    41  35  79 VRB5      30.16R
PRAIRIE DU CHI CLOUDY    42  33  69 CALM      30.08R
PLATTEVILLE    CLOUDY    44  39  83 NE9       30.10R
$$

WIZ056-057-062-063-064-067-068-291000-
SOUTH CENTRAL WISCONSIN

CITY           SKY/WX    TMP DP  RH WIND       PRES   REMARKS
REEDSBURG      CLOUDY    41  32  70 NE7       30.10R
BARABOO/DELLS  CLOUDY    39  32  75 NE5       30.11R
LONE ROCK      NOT AVBL
MINERAL POINT  CLOUDY    43  37  81 NE8       30.09R
MADISON        CLOUDY    44  33  65 NE12      30.12R
MIDDLETON      CLOUDY    45  36  69 E7        30.13R
WATERTOWN      CLOUDY    44  36  75 E9        30.11R
MONROE         CLOUDY    43  37  81 NE12      30.07R
JANESVILLE     CLOUDY    46  43  87 N7        30.06F
$$

WIZ051-052-058>065-066-070>072-291000-
SOUTHEAST WISCONSIN

CITY           SKY/WX    TMP DP  RH WIND       PRES   REMARKS
MILWAUKEE      CLOUDY    43  36  76 NE14G24   30.10R
WAUKESHA       CLOUDY    41  32  70 NE13G21   30.12R
MILWAUKEE/TIMM CLOUDY    43  32  65 NE12      30.13R
RACINE         CLOUDY    42  35  76 NE17G26   30.11F
KENOSHA        CLOUDY    43  35  73 NE16G24   30.08F
FOND DU LAC    CLEAR     43  28  55 NE14      30.14R
SHEBOYGAN      CLOUDY    42  35  76 NE8       30.15R
WEST BEND      CLOUDY    41  36  81 E6        30.15R
JUNEAU         CLOUDY    42  32  69 NE8       30.12R
$$

LSZ147-162-291000-
LAKE SUPERIOR

STATION/POSITION TIME  TEMP    WIND        PRES    WAVE
                       AIR SEA DIR/SP/G            HT/PER
                 (UTC) (F)     (DEG/KT/KT) (MB)    (FT/S)
DEVILS ISLAND    0800   36     210/  5/  5 1024.2R
PORT WING        0830   29     170/  4/  4 1024.0R
SAXON HARBOR     0840   28     200/  4/  4 1023.4R
$$

LMZ867-665-643>646-291000-
LAKE MICHIGAN

STATION/POSITION TIME  TEMP    WIND        PRES    WAVE
                       AIR SEA DIR/SP/G            HT/PER
                 (UTC) (F)     (DEG/KT/KT) (MB)    (FT/S)
CHAMBERS ISLAND  0840   37     340/ 12/ 15 1020.0S
N MID LAKE BUOY  0750   37 37  340/ 16/ 17 1021.3R   2/ 3
NORTHPORT PIER   0840   37     340/ 15/ 18 1020.7R
KEWAUNEE LAKESHO 0830   38     360/  8/ 13 1019.4R
SHEBOYGAN LAKESH 0800   42      20/ 15/ 16 1018.8R
PORT WASHINGTON  0840   43      60/ 10/ 12 1021.7R
MILWAUKEE LAKESH 0830   42      30/ 17/ 18   N/A
S MID LAKE BUOY  0750   43 41   30/  8/ 10 1019.3R   2/ 4
KENOSHA   LAKESH 0800   43      30/ 16/ 19 1019.3
$$

TC  - TEMPERATURE IN CELSIUS
VSB - VISIBILITY IN STATUTE MILES
WCI - WIND CHILL INDEX
HX  - HEAT INDEX





USA.gov is the U.S. government's official web portal to all federal, state and local government web resources and services.